| time (UTC) | temp F | wind direction | speed MPH | gust MPH | rain 1hr in | rain 24hr in | rain mn in | humidity % | barometer mb |
| 20260504231521 | 53 | 274 | 0.0 | 0.0 | 0.00 | 0.00 | 0.00 | 79 | 1008.0 |
| 20260504230021 | 53 | 274 | 0.0 | 0.0 | 0.00 | 0.00 | 0.00 | 80 | 1008.0 |
| 20260504224524 | 53 | 274 | 0.0 | 0.0 | 0.00 | 0.00 | 0.00 | 78 | 1007.9 |
| 20260504223017 | 54 | 274 | 0.0 | 0.0 | 0.00 | 0.00 | 0.00 | 78 | 1008.0 |
| 20260504221516 | 54 | 274 | 0.0 | 0.0 | 0.00 | 0.00 | 0.00 | 77 | 1008.0 |
| 20260504220013 | 54 | 274 | 0.0 | 0.0 | 0.00 | 0.00 | 0.00 | 77 | 1008.0 |
| 20260504214510 | 55 | 274 | 0.0 | 0.0 | 0.00 | 0.00 | 0.00 | 76 | 1007.8 |
| 20260504213026 | 55 | 274 | 0.0 | 1.0 | 0.00 | 0.00 | 0.00 | 76 | 1007.9 |
| 20260504211510 | 55 | 272 | 0.0 | 0.0 | 0.00 | 0.00 | 0.00 | 76 | 1007.8 |
| 20260504210007 | 56 | 272 | 0.0 | 0.0 | 0.00 | 0.00 | 0.00 | 75 | 1007.7 |
| 20260504204507 | 56 | 272 | 0.0 | 0.0 | 0.00 | 0.00 | 0.00 | 73 | 1007.7 |
| 20260504203003 | 57 | 272 | 0.0 | 1.0 | 0.00 | 0.00 | 0.00 | 73 | 1007.8 |
| 20260504201607 | 57 | 250 | 0.0 | 0.0 | 0.00 | 0.00 | 0.00 | 72 | 1007.7 |
| 20260504200058 | 57 | 250 | 0.0 | 0.0 | 0.00 | 0.00 | 0.00 | 70 | 1007.7 |
| 20260504194604 | 58 | 248 | 0.0 | 4.0 | 0.00 | 0.00 | 0.00 | 69 | 1007.8 |
| 20260504193057 | 58 | 270 | 0.0 | 0.0 | 0.00 | 0.00 | 0.00 | 67 | 1007.7 |
| 20260504191621 | 59 | 270 | 0.0 | 0.0 | 0.00 | 0.00 | 0.00 | 66 | 1007.7 |
| 20260504184605 | 60 | 270 | 0.0 | 2.0 | 0.00 | 0.00 | 0.00 | 63 | 1007.7 |
| 20260504183055 | 60 | 272 | 0.0 | 5.0 | 0.00 | 0.00 | 0.00 | 59 | 1007.8 |
| 20260504181554 | 61 | 305 | 0.0 | 4.0 | 0.00 | 0.00 | 0.00 | 57 | 1007.9 |
| 20260504180054 | 61 | 254 | 0.0 | 5.0 | 0.00 | 0.00 | 0.00 | 52 | 1007.9 |
| 20260504174553 | 62 | 285 | 0.0 | 0.0 | 0.00 | 0.00 | 0.00 | 51 | 1007.8 |
| 20260504173052 | 63 | 285 | 0.0 | 0.0 | 0.00 | 0.00 | 0.00 | 49 | 1007.6 |
| 20260504171552 | 63 | 285 | 0.0 | 4.0 | 0.00 | 0.00 | 0.00 | 49 | 1007.5 |
| 20260504081506 | 63 | 191 | 1.0 | 8.0 | 0.00 | 0.00 | 0.00 | 39 | 1009.0 |
| 20260504044535 | 56 | 308 | 0.0 | 4.0 | 0.00 | 0.00 | 0.00 | 47 | 1010.3 |
| 20260504043033 | 54 | 293 | 0.0 | 0.0 | 0.00 | 0.00 | 0.00 | 53 | 1010.4 |
| 20260504041526 | 53 | 283 | 0.0 | 2.0 | 0.00 | 0.00 | 0.00 | 52 | 1010.4 |
| 20260504040022 | 52 | 305 | 0.0 | 0.0 | 0.00 | 0.00 | 0.00 | 55 | 1010.4 |
| 20260504034520 | 50 | 191 | 0.0 | 0.0 | 0.00 | 0.00 | 0.00 | 57 | 1010.4 |
| 20260504033016 | 49 | 190 | 0.0 | 0.0 | 0.00 | 0.00 | 0.00 | 57 | 1010.5 |
| 20260504031514 | 48 | 164 | 0.0 | 0.0 | 0.00 | 0.00 | 0.00 | 58 | 1010.5 |
| 20260504030011 | 46 | 162 | 0.0 | 0.0 | 0.00 | 0.00 | 0.00 | 66 | 1010.6 |
| 20260504024512 | 46 | 162 | 0.0 | 0.0 | 0.00 | 0.00 | 0.00 | 70 | 1010.6 |
| 20260504023009 | 45 | 162 | 0.0 | 0.0 | 0.00 | 0.00 | 0.00 | 72 | 1010.6 |
| 20260504021508 | 42 | 163 | 0.0 | 0.0 | 0.00 | 0.00 | 0.00 | 76 | 1010.7 |
| 20260504020006 | 41 | 162 | 0.0 | 0.0 | 0.00 | 0.00 | 0.00 | 77 | 1010.8 |
| 20260504014506 | 39 | 162 | 0.0 | 0.0 | 0.00 | 0.00 | 0.00 | 77 | 1010.9 |
| 20260504013004 | 38 | 162 | 0.0 | 0.0 | 0.00 | 0.00 | 0.00 | 79 | 1010.9 |
| 20260504011503 | 37 | 162 | 0.0 | 0.0 | 0.00 | 0.00 | 0.00 | 78 | 1011.0 |
| 20260504010101 | 37 | 162 | 0.0 | 0.0 | 0.00 | 0.00 | 0.00 | 76 | 1011.0 |
| 20260504004557 | 38 | 162 | 0.0 | 0.0 | 0.00 | 0.00 | 0.00 | 73 | 1011.0 |
| 20260504003056 | 39 | 162 | 0.0 | 0.0 | 0.00 | 0.00 | 0.00 | 72 | 1011.0 |
| 20260504001555 | 39 | 162 | 0.0 | 0.0 | 0.00 | 0.00 | 0.00 | 71 | 1011.2 |
| 20260504000127 | 39 | 162 | 0.0 | 0.0 | 0.00 | 0.00 | 0.00 | 69 | 1011.3 |
| 20260503234548 | 40 | 162 | 0.0 | 0.0 | 0.00 | 0.00 | 0.00 | 67 | 1011.4 |
| 20260503233044 | 42 | 162 | 0.0 | 0.0 | 0.00 | 0.00 | 0.00 | 64 | 1011.4 |